Flag for U.S.A. Weather past 2 weeks in Aspen, Colorado, U.S.A.

19 °F

Light snow. Overcast.

Feels Like: 9 °F
Forecast: 12 / 21 °F
Wind: 8 mph from North

Location: Aspen-Pitkin County Airport

Current Time: Nov 30, 2015 at 2:02:20 AM

Latest Report: Nov 30, 2015 at 12:53 AM

Visibility: 2 mi

Pressure: 29.84 "Hg (21.89 "Hg at 2411m altitude)

Humidity: 81%

Dew point: 14 °F

Location of AspenLocation

Historic Weather in Aspen — Graph


Aspen temperature yesterday

Maximum temperature yesterday: 31 °F (at 12:53 PM)
Minimum temperature yesterday: 19 °F (at 5:53 AM)
Average temperature yesterday: 23 °F

Past Weeks' High & Low Weather Summary

High52 °F (Nov 15, 1:53 PM)96% (Nov 16, 6:01 AM)30.54 "Hg (Nov 16, 6:01 AM)
Low6 °F (Nov 21, 6:53 AM)10% (Nov 15, 2:53 PM)29.39 "Hg (Nov 16, 3:53 AM)
Average29 °F61%29.94 "Hg
* Reported Nov 15 12:53 AM — Nov 30 12:01 AM, Aspen, Weather by CustomWeather, © 2015

Note: Actual official high and low records may vary slightly from our data, if they occured in-between our weather recording intervals... More about our weather records


Aspen weather history for previous 24 hours

Time TempWeatherWind HumidityBarometerVisibility
12:01 AM
Mon, Nov 30
20 °FLight snow. Ice fog.8 mph85%29.84 "Hg3 mi
10:53 PM
Sun, Nov 29
21 °FLight snow. Ice fog.5 mph88%29.83 "Hg1 mi
9:53 PM21 °FMostly cloudy.No wind88%29.85 "Hg7 mi
9:01 PM22 °FOvercast.3 mph85%29.85 "Hg9 mi
8:01 PM22 °FLight snow. Ice fog.5 mph85%29.86 "Hg1 mi
6:53 PM23 °FOvercast.7 mph78%29.91 "Hg10 mi
5:53 PM24 °FOvercast.3 mph75%29.90 "Hg10 mi
4:53 PM26 °FOvercast.6 mph71%29.89 "Hg10 mi
2:53 PM29 °FPartly sunny.9 mph58%29.85 "Hg10 mi
1:53 PM31 °FPassing clouds.8 mph54%29.84 "Hg10 mi
12:53 PM31 °FPassing clouds.3 mph47%29.85 "Hg10 mi
11:53 AM29 °FPassing clouds.5 mph58%29.92 "Hg10 mi
10:53 AM27 °FPassing clouds.3 mph63%29.98 "Hg10 mi
9:53 AM25 °FPassing clouds.No wind69%30.03 "Hg10 mi
8:53 AM23 °FSunny.No wind78%30.04 "Hg10 mi
7:56 AM20 °FScattered clouds.No wind89%30.01 "Hg10 mi
7:00 AM19 °FLight snow. Ice fog.No wind88%30.00 "Hg6 mi
5:53 AM19 °FIce fog.No wind92%30.04 "Hg6 mi
4:53 AM20 °FOvercast.3 mph89%30.01 "Hg8 mi
3:53 AM20 °FMostly cloudy.6 mph89%29.96 "Hg10 mi
2:53 AM20 °FLight snow. Ice fog.No wind85%29.94 "Hg4 mi
Weather by CustomWeather, © 2015

See weather overviewHow to use our weather pages